Terminal Aerodrome Forecast
Issued by NWS Sterling, VA

Home | Current Version | Previous Version | Text Only | Print | Product List | Glossary On
Versions: 1 2 3 4 5 6 7 8 9 10 11 12 13 14 15 16 17 18 19
000
FTUS41 KLWX 222300
TAFBWI
TAF
KBWI 222339Z 2300/2406 33004KT 1 1/2SM -RA BR SCT005 OVC014
     FM230500 35005KT 3SM -RA BR OVC003
     FM231100 00000KT 3SM -DZ BR OVC003
     FM231500 00000KT 3SM -DZ BR OVC008
     FM232300 00000KT P6SM OVC008
     FM240200 00000KT 6SM -RA OVC008=

USA.gov is the U.S. government's official web portal to all federal, state and local government web resources and services.